N2923R KOWB-KLCK

Flight info

Callsign N2923R
Flight time 1h 33m
Altitude 7000
Route MYS IIU FLM XUB
Aircraft PA34/L-SDFGRY/S

Departure

Time 2026-05-06 02:16
Airport Owensboro Daviess County Airport (KOWB)

Arrival

Time 2026-05-06 03:49
Airport Rickenbacker International Airport (KLCK)
Time Latitude Longitude Altitude Speed Heading
2026-05-06 01:43 37.73708 -87.16400 400 ft 0 kts 90°
2026-05-06 02:08 37.73694 -87.16392 399 ft 5 kts 215°
2026-05-06 02:08 37.73695 -87.16421 400 ft 4 kts 322°
2026-05-06 02:09 37.73747 -87.16423 400 ft 10 kts
2026-05-06 02:09 37.73781 -87.16457 400 ft 7 kts 271°
2026-05-06 02:09 37.73771 -87.16536 400 ft 8 kts 211°
2026-05-06 02:09 37.73700 -87.16537 400 ft 12 kts 178°
2026-05-06 02:10 37.73605 -87.16534 400 ft 14 kts 178°
2026-05-06 02:10 37.73495 -87.16528 400 ft 16 kts 176°
2026-05-06 02:10 37.73372 -87.16522 400 ft 18 kts 178°
2026-05-06 02:10 37.73239 -87.16515 400 ft 19 kts 178°
2026-05-06 02:11 37.73098 -87.16510 399 ft 20 kts 176°
2026-05-06 02:11 37.72956 -87.16501 399 ft 20 kts 177°
2026-05-06 02:11 37.72812 -87.16494 399 ft 21 kts 178°
2026-05-06 02:11 37.72729 -87.16499 399 ft 9 kts 217°
2026-05-06 02:12 37.72710 -87.16557 399 ft 0 kts 272°
2026-05-06 02:14 37.72711 -87.16564 399 ft 4 kts 272°
2026-05-06 02:15 37.72711 -87.16634 399 ft 9 kts 269°
2026-05-06 02:15 37.72765 -87.16675 399 ft 13 kts 358°
2026-05-06 02:15 37.73098 -87.16691 400 ft 83 kts 359°
2026-05-06 02:15 37.73808 -87.16685 510 ft 113 kts 360°
2026-05-06 02:16 37.74611 -87.16691 878 ft 114 kts 356°
2026-05-06 02:16 37.75407 -87.16729 1265 ft 116 kts 352°
2026-05-06 02:16 37.76217 -87.16785 1611 ft 114 kts 349°
2026-05-06 02:16 37.77025 -87.16837 1870 ft 116 kts 353°
2026-05-06 02:17 37.77817 -87.16833 2123 ft 117 kts 359°
2026-05-06 02:17 37.78548 -87.16375 2362 ft 120 kts 49°
2026-05-06 02:17 37.78963 -87.15455 2573 ft 123 kts 71°
2026-05-06 02:17 37.79304 -87.14434 2810 ft 123 kts 73°
2026-05-06 02:18 37.79612 -87.13447 3057 ft 121 kts 80°
2026-05-06 02:18 37.79812 -87.12427 3302 ft 120 kts 86°
2026-05-06 02:18 37.80071 -87.11403 3518 ft 126 kts 68°
2026-05-06 02:18 37.80497 -87.10406 3722 ft 131 kts 66°
2026-05-06 02:19 37.80948 -87.09383 3932 ft 135 kts 64°
2026-05-06 02:19 37.81414 -87.08334 4141 ft 138 kts 65°
2026-05-06 02:19 37.81888 -87.07266 4335 ft 141 kts 64°
2026-05-06 02:19 37.82369 -87.06186 4552 ft 142 kts 64°
2026-05-06 02:20 37.83340 -87.04002 4994 ft 144 kts 63°
2026-05-06 02:20 37.83831 -87.02898 5214 ft 145 kts 62°
2026-05-06 02:20 37.84325 -87.01787 5435 ft 146 kts 63°
2026-05-06 02:21 37.84824 -87.00665 5653 ft 147 kts 62°
2026-05-06 02:21 37.85327 -86.99530 5853 ft 149 kts 62°
2026-05-06 02:21 37.85842 -86.98370 6054 ft 151 kts 62°
2026-05-06 02:21 37.86353 -86.97218 6262 ft 152 kts 60°
2026-05-06 02:22 37.86872 -86.96049 6470 ft 154 kts 61°
2026-05-06 02:22 37.87399 -86.94859 6687 ft 155 kts 61°
2026-05-06 02:22 37.87934 -86.93655 6871 ft 160 kts 62°
2026-05-06 02:22 37.88486 -86.92408 7039 ft 164 kts 61°
2026-05-06 02:23 37.89077 -86.91074 7004 ft 180 kts 61°
2026-05-06 02:23 37.89700 -86.89665 7003 ft 187 kts 60°
2026-05-06 02:23 37.90346 -86.88203 7007 ft 189 kts 60°
2026-05-06 02:23 37.90990 -86.86747 6998 ft 190 kts 61°
2026-05-06 02:24 37.91618 -86.85327 7006 ft 190 kts 60°
2026-05-06 02:24 37.92258 -86.83881 6997 ft 190 kts 60°
2026-05-06 02:24 37.92904 -86.82417 6999 ft 190 kts 61°
2026-05-06 02:24 37.93559 -86.80933 6998 ft 192 kts 60°
2026-05-06 02:25 37.94210 -86.79459 7004 ft 192 kts 61°
2026-05-06 02:25 37.94863 -86.77978 7008 ft 192 kts 60°
2026-05-06 02:25 37.95511 -86.76511 6997 ft 192 kts 62°
2026-05-06 02:25 37.96159 -86.75038 7008 ft 192 kts 61°
2026-05-06 02:26 37.96809 -86.73562 6990 ft 193 kts 62°
2026-05-06 02:26 37.97461 -86.72081 6987 ft 192 kts 61°
2026-05-06 02:26 37.98109 -86.70608 6989 ft 191 kts 61°
2026-05-06 02:26 37.98766 -86.69114 6984 ft 192 kts 62°
2026-05-06 02:27 37.99415 -86.67638 6982 ft 192 kts 61°
2026-05-06 02:27 38.00061 -86.66164 6977 ft 192 kts 61°
2026-05-06 02:27 38.00710 -86.64671 6983 ft 192 kts 62°
2026-05-06 02:27 38.01347 -86.63196 6982 ft 192 kts 61°
2026-05-06 02:28 38.01994 -86.61703 6986 ft 192 kts 60°
2026-05-06 02:28 38.02636 -86.60228 6984 ft 192 kts 61°
2026-05-06 02:28 38.03291 -86.58727 6978 ft 192 kts 61°
2026-05-06 02:28 38.03939 -86.57243 6985 ft 192 kts 62°
2026-05-06 02:29 38.04583 -86.55767 6984 ft 193 kts 62°
2026-05-06 02:29 38.05235 -86.54273 6984 ft 193 kts 62°
2026-05-06 02:29 38.05888 -86.52779 6986 ft 194 kts 62°
2026-05-06 02:29 38.06544 -86.51274 6986 ft 194 kts 61°
2026-05-06 02:30 38.07196 -86.49784 6987 ft 194 kts 61°
2026-05-06 02:30 38.07853 -86.48280 6984 ft 194 kts 62°
2026-05-06 02:30 38.08515 -86.46767 6984 ft 194 kts 62°
2026-05-06 02:30 38.09164 -86.45283 6989 ft 193 kts 62°
2026-05-06 02:31 38.09819 -86.43783 6979 ft 192 kts 63°
2026-05-06 02:31 38.10350 -86.42570 6979 ft 189 kts 62°
2026-05-06 02:31 38.10945 -86.41202 6980 ft 186 kts 61°
2026-05-06 02:31 38.11541 -86.39837 6978 ft 184 kts 62°
2026-05-06 02:32 38.12177 -86.38377 6987 ft 183 kts 62°
2026-05-06 02:32 38.12790 -86.36971 6974 ft 183 kts 63°
2026-05-06 02:32 38.13410 -86.35545 6980 ft 183 kts 63°
2026-05-06 02:32 38.14035 -86.34113 6987 ft 185 kts 63°
2026-05-06 02:33 38.14675 -86.32640 6976 ft 184 kts 62°
2026-05-06 02:33 38.14920 -86.32077 6968 ft 185 kts 64°
2026-05-06 02:33 38.16390 -86.28696 6963 ft 187 kts 62°
2026-05-06 02:34 38.17018 -86.27254 6971 ft 186 kts 64°
2026-05-06 02:34 38.17648 -86.25806 6978 ft 187 kts 63°
2026-05-06 02:34 38.18277 -86.24353 6980 ft 187 kts 63°
2026-05-06 02:34 38.18900 -86.22917 6973 ft 187 kts 63°
2026-05-06 02:35 38.19530 -86.21465 6977 ft 188 kts 63°
2026-05-06 02:35 38.20162 -86.20008 6975 ft 188 kts 63°
2026-05-06 02:35 38.20795 -86.18545 6978 ft 188 kts 64°
2026-05-06 02:35 38.21418 -86.17105 6980 ft 188 kts 63°
2026-05-06 02:36 38.22059 -86.15633 6974 ft 188 kts 63°
2026-05-06 02:36 38.22694 -86.14171 6978 ft 188 kts 63°
2026-05-06 02:36 38.23321 -86.12723 6980 ft 188 kts 63°
2026-05-06 02:36 38.23963 -86.11243 6978 ft 189 kts 64°
2026-05-06 02:37 38.24595 -86.09781 6974 ft 189 kts 63°
2026-05-06 02:37 38.25225 -86.08324 6971 ft 188 kts 63°
2026-05-06 02:37 38.25863 -86.06846 6976 ft 188 kts 64°
2026-05-06 02:37 38.26496 -86.05380 6972 ft 189 kts 64°
2026-05-06 02:38 38.27118 -86.03937 6978 ft 188 kts 64°
2026-05-06 02:38 38.27751 -86.02469 6972 ft 188 kts 63°
2026-05-06 02:38 38.28384 -86.00999 6968 ft 188 kts 63°
2026-05-06 02:38 38.29010 -85.99545 6966 ft 188 kts 63°
2026-05-06 02:39 38.29643 -85.98076 6982 ft 188 kts 63°
2026-05-06 02:39 38.30276 -85.96606 6968 ft 187 kts 64°
2026-05-06 02:39 38.30902 -85.95153 6981 ft 186 kts 64°
2026-05-06 02:39 38.31519 -85.93716 6979 ft 187 kts 63°
2026-05-06 02:40 38.32146 -85.92255 6980 ft 188 kts 63°
2026-05-06 02:40 38.32776 -85.90789 6979 ft 188 kts 63°
2026-05-06 02:40 38.33406 -85.89321 6980 ft 188 kts 64°
2026-05-06 02:40 38.34034 -85.87861 6982 ft 188 kts 64°
2026-05-06 02:41 38.34659 -85.86404 6977 ft 188 kts 63°
2026-05-06 02:41 38.35288 -85.84956 6978 ft 187 kts 62°
2026-05-06 02:41 38.35919 -85.83494 6979 ft 187 kts 63°
2026-05-06 02:41 38.36553 -85.82036 6977 ft 187 kts 62°
2026-05-06 02:42 38.37170 -85.80592 6978 ft 187 kts 64°
2026-05-06 02:42 38.37790 -85.79120 6978 ft 188 kts 64°
2026-05-06 02:42 38.38415 -85.77638 6978 ft 188 kts 64°
2026-05-06 02:42 38.39038 -85.76169 6979 ft 188 kts 64°
2026-05-06 02:43 38.39662 -85.74702 6980 ft 187 kts 63°
2026-05-06 02:43 38.40281 -85.73247 6972 ft 187 kts 63°
2026-05-06 02:43 38.40908 -85.71781 6976 ft 187 kts 64°
2026-05-06 02:43 38.41531 -85.70320 6979 ft 187 kts 64°
2026-05-06 02:44 38.42150 -85.68866 6976 ft 187 kts 63°
2026-05-06 02:44 38.42773 -85.67404 6977 ft 187 kts 63°
2026-05-06 02:44 38.43406 -85.65932 6981 ft 187 kts 62°
2026-05-06 02:44 38.44029 -85.64475 6983 ft 188 kts 63°
2026-05-06 02:45 38.44651 -85.63008 6980 ft 188 kts 63°
2026-05-06 02:45 38.45273 -85.61549 6979 ft 188 kts 63°
2026-05-06 02:45 38.45898 -85.60078 6981 ft 188 kts 63°
2026-05-06 02:45 38.46518 -85.58621 6979 ft 188 kts 63°
2026-05-06 02:46 38.47145 -85.57143 6978 ft 187 kts 64°
2026-05-06 02:46 38.47768 -85.55673 6979 ft 187 kts 63°
2026-05-06 02:46 38.48389 -85.54208 6998 ft 188 kts 64°
2026-05-06 02:46 38.49012 -85.52745 6980 ft 189 kts 64°
2026-05-06 02:47 38.49640 -85.51268 6972 ft 189 kts 63°
2026-05-06 02:47 38.50264 -85.49798 6956 ft 188 kts 64°
2026-05-06 02:47 38.50880 -85.48338 6976 ft 188 kts 63°
2026-05-06 02:47 38.51506 -85.46859 6969 ft 188 kts 63°
2026-05-06 02:48 38.52125 -85.45393 6995 ft 187 kts 64°
2026-05-06 02:48 38.52753 -85.43923 6969 ft 187 kts 60°
2026-05-06 02:48 38.53389 -85.42474 6973 ft 187 kts 58°
2026-05-06 02:48 38.54023 -85.41023 6987 ft 185 kts 65°
2026-05-06 02:49 38.54630 -85.39552 6984 ft 188 kts 63°
2026-05-06 02:49 38.55239 -85.38084 6989 ft 188 kts 63°
2026-05-06 02:49 38.55858 -85.36603 6979 ft 188 kts 63°
2026-05-06 02:49 38.56469 -85.35141 6973 ft 188 kts 62°
2026-05-06 02:50 38.57097 -85.33649 6971 ft 188 kts 64°
2026-05-06 02:50 38.57720 -85.32169 6976 ft 188 kts 63°
2026-05-06 02:50 38.58340 -85.30698 6975 ft 187 kts 64°
2026-05-06 02:50 38.58962 -85.29219 6970 ft 187 kts 64°
2026-05-06 02:51 38.59573 -85.27766 6969 ft 187 kts 63°
2026-05-06 02:51 38.60196 -85.26302 6974 ft 187 kts 63°
2026-05-06 02:51 38.60811 -85.24838 6970 ft 186 kts 64°
2026-05-06 02:51 38.61426 -85.23372 6964 ft 187 kts 65°
2026-05-06 02:52 38.62042 -85.21899 6984 ft 186 kts 63°
2026-05-06 02:52 38.62656 -85.20435 6976 ft 186 kts 64°
2026-05-06 02:52 38.63274 -85.18973 6979 ft 186 kts 64°
2026-05-06 02:52 38.63885 -85.17523 6978 ft 187 kts 65°
2026-05-06 02:53 38.64505 -85.16047 6973 ft 188 kts 63°
2026-05-06 02:53 38.65115 -85.14581 6975 ft 190 kts 61°
2026-05-06 02:53 38.65735 -85.13097 6971 ft 188 kts 64°
2026-05-06 02:53 38.66351 -85.11624 6967 ft 187 kts 65°
2026-05-06 02:54 38.66964 -85.10152 6953 ft 186 kts 64°
2026-05-06 02:54 38.67571 -85.08700 6970 ft 186 kts 63°
2026-05-06 02:54 38.68192 -85.07215 6967 ft 187 kts 63°
2026-05-06 02:54 38.68802 -85.05759 6974 ft 186 kts 62°
2026-05-06 02:55 38.69416 -85.04288 6970 ft 187 kts 64°
2026-05-06 02:55 38.70031 -85.02811 6973 ft 187 kts 63°
2026-05-06 02:55 38.70641 -85.01352 6971 ft 187 kts 62°
2026-05-06 02:55 38.71258 -84.99879 6974 ft 188 kts 63°
2026-05-06 02:56 38.71870 -84.98412 6972 ft 188 kts 62°
2026-05-06 02:56 38.72486 -84.96932 6963 ft 188 kts 62°
2026-05-06 02:56 38.73103 -84.95453 6973 ft 188 kts 63°
2026-05-06 02:56 38.73721 -84.93976 6974 ft 187 kts 63°
2026-05-06 02:57 38.74343 -84.92508 6970 ft 187 kts 62°
2026-05-06 02:57 38.74960 -84.91038 6968 ft 187 kts 62°
2026-05-06 02:57 38.75577 -84.89567 6976 ft 187 kts 62°
2026-05-06 02:57 38.76184 -84.88099 6969 ft 187 kts 63°
2026-05-06 02:58 38.76792 -84.86616 6976 ft 187 kts 64°
2026-05-06 02:58 38.77395 -84.85151 6969 ft 188 kts 63°
2026-05-06 02:58 38.78013 -84.83656 6967 ft 189 kts 62°
2026-05-06 02:58 38.78630 -84.82165 6977 ft 188 kts 64°
2026-05-06 02:59 38.79243 -84.80679 6974 ft 187 kts 63°
2026-05-06 02:59 38.79852 -84.79205 6977 ft 188 kts 63°
2026-05-06 02:59 38.80465 -84.77730 6979 ft 188 kts 63°
2026-05-06 02:59 38.81081 -84.76245 6977 ft 188 kts 63°
2026-05-06 03:00 38.81699 -84.74749 6964 ft 188 kts 63°
2026-05-06 03:00 38.82309 -84.73280 6975 ft 187 kts 63°
2026-05-06 03:00 38.82921 -84.71802 6975 ft 188 kts 64°
2026-05-06 03:00 38.83533 -84.70320 6979 ft 188 kts 63°
2026-05-06 03:01 38.84144 -84.68839 6972 ft 188 kts 63°
2026-05-06 03:01 38.84754 -84.67360 6975 ft 188 kts 63°
2026-05-06 03:01 38.85371 -84.65865 6975 ft 188 kts 63°
2026-05-06 03:01 38.85983 -84.64383 6979 ft 188 kts 63°
2026-05-06 03:02 38.86599 -84.62890 6979 ft 189 kts 63°
2026-05-06 03:02 38.87217 -84.61391 6984 ft 189 kts 63°
2026-05-06 03:02 38.87833 -84.59893 6983 ft 189 kts 63°
2026-05-06 03:02 38.88445 -84.58408 6984 ft 190 kts 63°
2026-05-06 03:03 38.89066 -84.56900 6987 ft 190 kts 63°
2026-05-06 03:03 38.89686 -84.55396 6985 ft 190 kts 63°
2026-05-06 03:03 38.90305 -84.53886 6985 ft 190 kts 63°
2026-05-06 03:03 38.90919 -84.52393 6986 ft 190 kts 63°
2026-05-06 03:04 38.91533 -84.50901 6987 ft 190 kts 63°
2026-05-06 03:04 38.92148 -84.49399 6985 ft 190 kts 63°
2026-05-06 03:04 38.92769 -84.47885 6985 ft 190 kts 63°
2026-05-06 03:04 38.93386 -84.46383 6988 ft 190 kts 64°
2026-05-06 03:05 38.93999 -84.44889 6990 ft 190 kts 64°
2026-05-06 03:05 38.94614 -84.43385 6988 ft 190 kts 63°
2026-05-06 03:05 38.95234 -84.41874 6989 ft 190 kts 63°
2026-05-06 03:05 38.95846 -84.40376 6989 ft 190 kts 63°
2026-05-06 03:06 38.96472 -84.38856 6988 ft 190 kts 62°
2026-05-06 03:06 38.97091 -84.37357 6988 ft 189 kts 64°
2026-05-06 03:06 38.97697 -84.35864 6989 ft 190 kts 64°
2026-05-06 03:06 38.98317 -84.34342 6985 ft 190 kts 64°
2026-05-06 03:07 38.98927 -84.32847 6985 ft 189 kts 64°
2026-05-06 03:07 38.99540 -84.31342 6987 ft 189 kts 64°
2026-05-06 03:07 39.00154 -84.29840 6981 ft 190 kts 64°
2026-05-06 03:07 39.00771 -84.28324 6982 ft 190 kts 64°
2026-05-06 03:08 39.01374 -84.26839 6982 ft 189 kts 64°
2026-05-06 03:08 39.01982 -84.25337 6981 ft 189 kts 64°
2026-05-06 03:08 39.02596 -84.23837 6980 ft 190 kts 64°
2026-05-06 03:08 39.03210 -84.22330 6985 ft 189 kts 64°
2026-05-06 03:09 39.03823 -84.20827 6984 ft 190 kts 64°
2026-05-06 03:09 39.04432 -84.19327 6987 ft 190 kts 64°
2026-05-06 03:09 39.05048 -84.17807 6984 ft 190 kts 65°
2026-05-06 03:09 39.05658 -84.16303 6976 ft 190 kts 64°
2026-05-06 03:10 39.06274 -84.14790 6974 ft 189 kts 65°
2026-05-06 03:10 39.06885 -84.13286 6979 ft 189 kts 64°
2026-05-06 03:10 39.07493 -84.11784 6982 ft 188 kts 65°
2026-05-06 03:10 39.08096 -84.10297 6979 ft 189 kts 65°
2026-05-06 03:11 39.08701 -84.08804 6984 ft 189 kts 64°
2026-05-06 03:11 39.09313 -84.07289 6989 ft 189 kts 64°
2026-05-06 03:11 39.09917 -84.05797 6984 ft 189 kts 65°
2026-05-06 03:11 39.10530 -84.04275 6983 ft 189 kts 65°
2026-05-06 03:12 39.11141 -84.02762 6986 ft 189 kts 63°
2026-05-06 03:12 39.11758 -84.01243 6983 ft 189 kts 64°
2026-05-06 03:12 39.12373 -83.99754 6976 ft 189 kts 64°
2026-05-06 03:12 39.12978 -83.98247 6980 ft 189 kts 64°
2026-05-06 03:13 39.13586 -83.96736 6988 ft 190 kts 66°
2026-05-06 03:13 39.14204 -83.95225 6965 ft 190 kts 64°
2026-05-06 03:13 39.14823 -83.93733 6984 ft 188 kts 61°
2026-05-06 03:13 39.15435 -83.92245 6969 ft 187 kts 65°
2026-05-06 03:14 39.16022 -83.90771 6973 ft 186 kts 64°
2026-05-06 03:14 39.16615 -83.89277 6964 ft 185 kts 64°
2026-05-06 03:14 39.17199 -83.87805 6968 ft 185 kts 65°
2026-05-06 03:14 39.17788 -83.86324 6970 ft 185 kts 65°
2026-05-06 03:15 39.18376 -83.84850 6967 ft 186 kts 65°
2026-05-06 03:15 39.18993 -83.83382 6978 ft 186 kts 61°
2026-05-06 03:15 39.19696 -83.81961 6984 ft 188 kts 54°
2026-05-06 03:15 39.20439 -83.80585 6973 ft 189 kts 52°
2026-05-06 03:16 39.21287 -83.79288 6974 ft 187 kts 47°
2026-05-06 03:16 39.22142 -83.77998 6977 ft 190 kts 52°
2026-05-06 03:16 39.22980 -83.76695 6989 ft 188 kts 49°
2026-05-06 03:16 39.23796 -83.75398 6961 ft 188 kts 51°
2026-05-06 03:17 39.24620 -83.74077 6962 ft 187 kts 49°
2026-05-06 03:17 39.25420 -83.72772 6966 ft 187 kts 51°
2026-05-06 03:17 39.26014 -83.71293 6969 ft 185 kts 73°
2026-05-06 03:17 39.26476 -83.69731 6981 ft 186 kts 71°
2026-05-06 03:18 39.26923 -83.68192 6966 ft 185 kts 73°
2026-05-06 03:18 39.27464 -83.66678 6982 ft 186 kts 55°
2026-05-06 03:18 39.28260 -83.65352 6991 ft 187 kts 49°
2026-05-06 03:18 39.29113 -83.64081 6987 ft 188 kts 47°
2026-05-06 03:19 39.29978 -83.62848 6989 ft 188 kts 46°
2026-05-06 03:19 39.30872 -83.61606 6989 ft 188 kts 45°
2026-05-06 03:19 39.31765 -83.60380 6986 ft 188 kts 45°
2026-05-06 03:19 39.32669 -83.59148 6993 ft 188 kts 44°
2026-05-06 03:20 39.34477 -83.56702 6996 ft 186 kts 44°
2026-05-06 03:20 39.35374 -83.55492 6983 ft 187 kts 45°
2026-05-06 03:20 39.36283 -83.54276 6983 ft 187 kts 46°
2026-05-06 03:21 39.37182 -83.53063 6993 ft 188 kts 44°
2026-05-06 03:21 39.38084 -83.51846 6970 ft 187 kts 45°
2026-05-06 03:21 39.38985 -83.50629 6977 ft 187 kts 46°
2026-05-06 03:21 39.39886 -83.49419 6970 ft 187 kts 44°
2026-05-06 03:22 39.40780 -83.48211 6994 ft 186 kts 45°
2026-05-06 03:22 39.41683 -83.46995 6980 ft 188 kts 44°
2026-05-06 03:22 39.42583 -83.45776 6998 ft 188 kts 44°
2026-05-06 03:22 39.43492 -83.44552 6984 ft 189 kts 46°
2026-05-06 03:23 39.44400 -83.43327 6974 ft 188 kts 44°
2026-05-06 03:23 39.45307 -83.42097 6988 ft 187 kts 44°
2026-05-06 03:23 39.46211 -83.40874 6976 ft 188 kts 47°
2026-05-06 03:23 39.47104 -83.39672 6998 ft 186 kts 45°
2026-05-06 03:24 39.48027 -83.38469 6968 ft 187 kts 43°
2026-05-06 03:24 39.48956 -83.37295 6977 ft 186 kts 42°
2026-05-06 03:24 39.49876 -83.36127 6981 ft 187 kts 42°
2026-05-06 03:24 39.50795 -83.34911 6974 ft 186 kts 47°
2026-05-06 03:25 39.51707 -83.33686 6977 ft 186 kts 46°
2026-05-06 03:25 39.52606 -83.32468 6971 ft 188 kts 46°
2026-05-06 03:25 39.53504 -83.31253 6971 ft 186 kts 44°
2026-05-06 03:25 39.54402 -83.30033 6978 ft 186 kts 47°
2026-05-06 03:26 39.55299 -83.28816 6985 ft 186 kts 46°
2026-05-06 03:26 39.56195 -83.27603 6964 ft 187 kts 45°
2026-05-06 03:26 39.57101 -83.26366 6977 ft 188 kts 45°
2026-05-06 03:26 39.58000 -83.25150 6979 ft 186 kts 49°
2026-05-06 03:27 39.58899 -83.23925 6996 ft 188 kts 48°
2026-05-06 03:27 39.59804 -83.22695 6972 ft 188 kts 46°
2026-05-06 03:27 39.60709 -83.21458 6978 ft 189 kts 45°
2026-05-06 03:27 39.61619 -83.20222 6984 ft 189 kts 46°
2026-05-06 03:28 39.62526 -83.18986 6966 ft 189 kts 47°
2026-05-06 03:28 39.63427 -83.17765 6975 ft 188 kts 45°
2026-05-06 03:28 39.64325 -83.16534 6966 ft 187 kts 47°
2026-05-06 03:28 39.65225 -83.15308 6969 ft 187 kts 48°
2026-05-06 03:29 39.66131 -83.14073 6976 ft 188 kts 47°
2026-05-06 03:29 39.67028 -83.12848 6974 ft 189 kts 46°
2026-05-06 03:29 39.67933 -83.11614 6968 ft 188 kts 47°
2026-05-06 03:29 39.68840 -83.10374 6977 ft 188 kts 47°
2026-05-06 03:30 39.69740 -83.09145 6969 ft 188 kts 47°
2026-05-06 03:30 39.70638 -83.07918 6972 ft 187 kts 47°
2026-05-06 03:30 39.71538 -83.06686 6989 ft 187 kts 47°
2026-05-06 03:30 39.72436 -83.05461 6996 ft 188 kts 46°
2026-05-06 03:31 39.73333 -83.04229 6991 ft 188 kts 46°
2026-05-06 03:31 39.74235 -83.02992 6988 ft 189 kts 49°
2026-05-06 03:31 39.75144 -83.01746 6984 ft 189 kts 47°
2026-05-06 03:31 39.76052 -83.00500 6983 ft 190 kts 47°
2026-05-06 03:32 39.76963 -82.99252 6995 ft 190 kts 47°
2026-05-06 03:32 39.77875 -82.98003 6894 ft 191 kts 49°
2026-05-06 03:32 39.78788 -82.96746 6788 ft 190 kts 49°
2026-05-06 03:32 39.79707 -82.95486 6677 ft 189 kts 48°
2026-05-06 03:33 39.80606 -82.94255 6541 ft 190 kts 49°
2026-05-06 03:33 39.81528 -82.92988 6402 ft 191 kts 47°
2026-05-06 03:33 39.82442 -82.91732 6253 ft 191 kts 50°
2026-05-06 03:33 39.83355 -82.90476 6121 ft 189 kts 49°
2026-05-06 03:34 39.84250 -82.89242 5989 ft 188 kts 48°
2026-05-06 03:34 39.85155 -82.87998 5857 ft 188 kts 49°
2026-05-06 03:34 39.86060 -82.86752 5715 ft 188 kts 49°
2026-05-06 03:34 39.86955 -82.85520 5582 ft 187 kts 47°
2026-05-06 03:35 39.87846 -82.84293 5449 ft 186 kts 48°
2026-05-06 03:35 39.88734 -82.83068 5313 ft 185 kts 49°
2026-05-06 03:35 39.89610 -82.81860 5182 ft 184 kts 48°
2026-05-06 03:35 39.90485 -82.80656 5048 ft 183 kts 48°
2026-05-06 03:36 39.91366 -82.79441 4913 ft 183 kts 49°
2026-05-06 03:36 39.92235 -82.78241 4782 ft 182 kts 48°
2026-05-06 03:36 39.93103 -82.77045 4653 ft 180 kts 49°
2026-05-06 03:36 39.93960 -82.75861 4525 ft 180 kts 48°
2026-05-06 03:37 39.94812 -82.74684 4397 ft 180 kts 47°
2026-05-06 03:37 39.95692 -82.73522 4271 ft 178 kts 44°
2026-05-06 03:37 39.96584 -82.72397 4142 ft 178 kts 45°
2026-05-06 03:37 39.97467 -82.71284 4015 ft 177 kts 44°
2026-05-06 03:38 39.98356 -82.70163 3890 ft 176 kts 45°
2026-05-06 03:38 39.99223 -82.69070 3763 ft 175 kts 45°
2026-05-06 03:38 40.00109 -82.67960 3642 ft 173 kts 44°
2026-05-06 03:38 40.01067 -82.67047 3491 ft 171 kts 15°
2026-05-06 03:39 40.02187 -82.67036 3354 ft 159 kts 333°
2026-05-06 03:39 40.02948 -82.67839 3210 ft 142 kts 290°
2026-05-06 03:39 40.03047 -82.69028 3056 ft 128 kts 248°
2026-05-06 03:39 40.02462 -82.69813 2971 ft 122 kts 205°
2026-05-06 03:40 40.01672 -82.70145 2984 ft 116 kts 200°
2026-05-06 03:40 40.00905 -82.70435 2993 ft 112 kts 200°
2026-05-06 03:40 40.00161 -82.70716 2987 ft 111 kts 200°
2026-05-06 03:40 39.99418 -82.70983 2993 ft 110 kts 195°
2026-05-06 03:41 39.98683 -82.71251 2994 ft 110 kts 200°
2026-05-06 03:41 39.97971 -82.71605 2989 ft 108 kts 209°
2026-05-06 03:41 39.97324 -82.72109 2985 ft 107 kts 216°
2026-05-06 03:41 39.96726 -82.72689 2997 ft 107 kts 220°
2026-05-06 03:42 39.96164 -82.73309 2996 ft 106 kts 221°
2026-05-06 03:42 39.95627 -82.73958 2998 ft 105 kts 224°
2026-05-06 03:42 39.95039 -82.74537 2995 ft 105 kts 219°
2026-05-06 03:42 39.94525 -82.75216 2999 ft 106 kts 225°
2026-05-06 03:43 39.94016 -82.75915 2995 ft 107 kts 225°
2026-05-06 03:43 39.93497 -82.76616 2997 ft 107 kts 225°
2026-05-06 03:43 39.92975 -82.77313 2991 ft 108 kts 224°
2026-05-06 03:43 39.92450 -82.78010 2997 ft 108 kts 224°
2026-05-06 03:44 39.91916 -82.78715 2986 ft 108 kts 224°
2026-05-06 03:44 39.91387 -82.79414 2994 ft 108 kts 224°
2026-05-06 03:44 39.90863 -82.80106 2994 ft 108 kts 224°
2026-05-06 03:44 39.90327 -82.80805 2946 ft 109 kts 219°
2026-05-06 03:45 39.89776 -82.81445 2805 ft 102 kts 223°
2026-05-06 03:45 39.89297 -82.82111 2680 ft 100 kts 225°
2026-05-06 03:45 39.88815 -82.82770 2551 ft 100 kts 226°
2026-05-06 03:45 39.88327 -82.83431 2415 ft 102 kts 226°
2026-05-06 03:46 39.87837 -82.84096 2276 ft 103 kts 225°
2026-05-06 03:46 39.87329 -82.84765 2132 ft 105 kts 224°
2026-05-06 03:46 39.86826 -82.85426 1988 ft 99 kts 224°
2026-05-06 03:46 39.86349 -82.86050 1877 ft 96 kts 225°
2026-05-06 03:47 39.85873 -82.86671 1739 ft 97 kts 225°
2026-05-06 03:47 39.85395 -82.87296 1602 ft 98 kts 225°
2026-05-06 03:47 39.84909 -82.87933 1465 ft 97 kts 225°
2026-05-06 03:47 39.84448 -82.88536 1336 ft 91 kts 225°
2026-05-06 03:48 39.84004 -82.89115 1213 ft 89 kts 225°
2026-05-06 03:48 39.83567 -82.89686 1093 ft 87 kts 225°
2026-05-06 03:48 39.83137 -82.90247 978 ft 87 kts 224°
2026-05-06 03:48 39.82706 -82.90810 865 ft 90 kts 224°
2026-05-06 03:49 39.82249 -82.91391 763 ft 91 kts 225°
2026-05-06 03:49 39.81864 -82.91894 736 ft 63 kts 225°
2026-05-06 03:49 39.81602 -82.92237 734 ft 44 kts 226°
2026-05-06 03:49 39.81418 -82.92481 734 ft 32 kts 226°
2026-05-06 03:50 39.81284 -82.92656 734 ft 22 kts 225°
2026-05-06 03:50 39.81185 -82.92786 735 ft 22 kts 226°
2026-05-06 03:50 39.81034 -82.92984 736 ft 37 kts 224°
2026-05-06 03:50 39.80858 -82.93213 738 ft 29 kts 228°
2026-05-06 03:51 39.80817 -82.93345 738 ft 16 kts 332°
2026-05-06 03:51 39.80924 -82.93462 739 ft 17 kts 317°
2026-05-06 03:51 39.80989 -82.93544 740 ft 17 kts 317°
2026-05-06 03:51 39.81099 -82.93677 740 ft 25 kts 316°
2026-05-06 03:52 39.81186 -82.93778 741 ft 6 kts 352°
2026-05-06 03:52 39.81257 -82.93723 741 ft 17 kts 46°
2026-05-06 03:52 39.81340 -82.93613 740 ft 15 kts 46°
2026-05-06 03:52 39.81418 -82.93560 740 ft 11 kts 331°
2026-05-06 03:53 39.81443 -82.93591 740 ft 1 kts 319°
2026-05-06 03:53 39.81449 -82.93601 740 ft 3 kts 267°
2026-05-06 03:53 39.81456 -82.93655 740 ft 4 kts 323°
2026-05-06 03:53 39.81493 -82.93665 740 ft 5 kts
2026-05-06 03:54 39.81544 -82.93660 740 ft 5 kts
2026-05-06 03:54 39.81583 -82.93670 740 ft 7 kts 320°
2026-05-06 03:54 39.81594 -82.93730 741 ft 8 kts 257°
2026-05-06 03:54 39.81594 -82.93819 741 ft 8 kts 294°
2026-05-06 03:55 39.81643 -82.93883 741 ft 11 kts 319°
2026-05-06 03:55 39.81688 -82.93890 741 ft 7 kts 48°
2026-05-06 03:55 39.81743 -82.93851 741 ft 11 kts 18°
2026-05-06 03:55 39.81808 -82.93878 741 ft 9 kts 316°
2026-05-06 03:56 39.81822 -82.93896 741 ft 0 kts 316°